contact:dominique.lefevre@mio.osupytheas.fr, maurice.libes@osupytheas.fr, didier.mallarino@osupytheas.fr
Project:EMSO http://www.emso-fr.org/EMSO-France
Depth: 2436.0 m
Title:EMSO Ligure Ouest : Data MII capteur MICROCAT
DateTime_Computer,Latitude,Longitude,Temperature,Conductivity,Pressure,DateTime_Instrument
DateTime_Computer,Latitude,Longitude,degC,S m-1,dbar,DateTime_Instrument
2023-06-18T00:02:45Z,42.805,6.029,13.3036,4.60105,2470.73,2023-6-18T02:05:00Z
2023-06-18T00:05:48Z,42.805,6.029,13.3039,4.60092,2470.717,2023-6-18T02:08:03Z
2023-06-18T00:08:52Z,42.805,6.029,13.3036,4.60099,2470.754,2023-6-18T02:11:06Z
2023-06-18T00:11:55Z,42.805,6.029,13.3037,4.60097,2470.74,2023-6-18T02:14:09Z
2023-06-18T00:14:58Z,42.805,6.029,13.3041,4.60097,2470.763,2023-6-18T02:17:12Z
2023-06-18T00:18:01Z,42.805,6.029,13.3034,4.60110,2470.693,2023-6-18T02:20:15Z
2023-06-18T00:21:04Z,42.805,6.029,13.3039,4.60097,2470.693,2023-6-18T02:23:18Z
2023-06-18T00:24:07Z,42.805,6.029,13.3036,4.60094,2470.703,2023-6-18T02:26:21Z
2023-06-18T00:27:10Z,42.805,6.029,13.3039,4.60099,2470.74,2023-6-18T02:29:24Z
2023-06-18T00:30:13Z,42.805,6.029,13.3038,4.60104,2470.74,2023-6-18T02:32:27Z
2023-06-18T00:33:16Z,42.805,6.029,13.3038,4.60097,2470.693,2023-6-18T02:35:31Z
2023-06-18T00:36:19Z,42.805,6.029,13.3039,4.60104,2470.74,2023-6-18T02:38:34Z
2023-06-18T00:39:22Z,42.805,6.029,13.3040,4.60105,2470.684,2023-6-18T02:41:37Z
2023-06-18T00:42:26Z,42.805,6.029,13.3037,4.60110,2470.74,2023-6-18T02:44:40Z
2023-06-18T00:45:29Z,42.805,6.029,13.3032,4.60099,2470.74,2023-6-18T02:47:43Z
2023-06-18T00:48:32Z,42.805,6.029,13.3036,4.60104,2470.74,2023-6-18T02:50:46Z
2023-06-18T00:51:35Z,42.805,6.029,13.3036,4.60109,2470.73,2023-6-18T02:53:49Z
2023-06-18T00:54:38Z,42.805,6.029,13.3037,4.60109,2470.693,2023-6-18T02:56:52Z
2023-06-18T00:57:41Z,42.805,6.029,13.3034,4.60102,2470.73,2023-6-18T02:59:55Z
2023-06-18T01:00:44Z,42.805,6.029,13.3034,4.60106,2470.703,2023-6-18T03:02:58Z
2023-06-18T01:03:47Z,42.805,6.029,13.3034,4.60095,2470.74,2023-6-18T03:06:01Z
2023-06-18T01:06:50Z,42.805,6.029,13.3039,4.60105,2470.717,2023-6-18T03:09:04Z
2023-06-18T01:09:53Z,42.805,6.029,13.3039,4.60098,2470.754,2023-6-18T03:12:08Z
2023-06-18T01:12:56Z,42.805,6.029,13.3034,4.60102,2470.717,2023-6-18T03:15:11Z
2023-06-18T01:15:59Z,42.805,6.029,13.3035,4.60106,2470.754,2023-6-18T03:18:14Z
2023-06-18T01:19:02Z,42.805,6.029,13.3039,4.60105,2470.717,2023-6-18T03:21:17Z
2023-06-18T01:22:06Z,42.805,6.029,13.3031,4.60094,2470.73,2023-6-18T03:24:20Z
2023-06-18T01:25:09Z,42.805,6.029,13.3038,4.60105,2470.717,2023-6-18T03:27:23Z
2023-06-18T01:28:12Z,42.805,6.029,13.3039,4.60104,2470.717,2023-6-18T03:30:26Z
2023-06-18T01:31:15Z,42.805,6.029,13.3032,4.60097,2470.693,2023-6-18T03:33:29Z
2023-06-18T01:34:18Z,42.805,6.029,13.3034,4.60117,2470.717,2023-6-18T03:36:32Z
2023-06-18T01:37:21Z,42.805,6.029,13.3040,4.60092,2470.717,2023-6-18T03:39:35Z
2023-06-18T01:40:24Z,42.805,6.029,13.3034,4.60110,2470.693,2023-6-18T03:42:38Z
2023-06-18T01:43:27Z,42.805,6.029,13.3032,4.60101,2470.73,2023-6-18T03:45:41Z
2023-06-18T01:46:30Z,42.805,6.029,13.3035,4.60111,2470.693,2023-6-18T03:48:45Z
2023-06-18T01:49:33Z,42.805,6.029,13.3036,4.60099,2470.693,2023-6-18T03:51:48Z
2023-06-18T01:52:36Z,42.805,6.029,13.3033,4.60097,2470.693,2023-6-18T03:54:51Z
2023-06-18T01:55:39Z,42.805,6.029,13.3036,4.60105,2470.717,2023-6-18T03:57:54Z
2023-06-18T01:58:43Z,42.805,6.029,13.3039,4.60103,2470.717,2023-6-18T04:00:57Z
2023-06-18T02:01:46Z,42.805,6.029,13.3024,4.60092,2470.707,2023-6-18T04:04:00Z
2023-06-18T02:04:49Z,42.805,6.029,13.3032,4.60094,2470.717,2023-6-18T04:07:03Z
2023-06-18T02:07:52Z,42.805,6.029,13.3035,4.60102,2470.679,2023-6-18T04:10:06Z
2023-06-18T02:10:55Z,42.805,6.029,13.3031,4.60095,2470.73,2023-6-18T04:13:09Z
2023-06-18T02:13:58Z,42.805,6.029,13.3037,4.60106,2470.703,2023-6-18T04:16:12Z
2023-06-18T02:17:01Z,42.805,6.029,13.3033,4.60096,2470.67,2023-6-18T04:19:15Z
2023-06-18T02:20:04Z,42.805,6.029,13.3035,4.60104,2470.693,2023-6-18T04:22:18Z
2023-06-18T02:23:07Z,42.805,6.029,13.3034,4.60099,2470.684,2023-6-18T04:25:22Z
2023-06-18T02:26:10Z,42.805,6.029,13.3034,4.60106,2470.693,2023-6-18T04:28:25Z
2023-06-18T02:29:13Z,42.805,6.029,13.3037,4.60102,2470.73,2023-6-18T04:31:28Z
2023-06-18T02:32:16Z,42.805,6.029,13.3031,4.60099,2470.684,2023-6-18T04:34:31Z
2023-06-18T02:35:20Z,42.805,6.029,13.3035,4.60099,2470.717,2023-6-18T04:37:34Z
2023-06-18T02:38:23Z,42.805,6.029,13.3030,4.60107,2470.717,2023-6-18T04:40:37Z
2023-06-18T02:41:26Z,42.805,6.029,13.3036,4.60110,2470.717,2023-6-18T04:43:40Z
2023-06-18T02:44:29Z,42.805,6.029,13.3034,4.60099,2470.73,2023-6-18T04:46:43Z
2023-06-18T02:47:32Z,42.805,6.029,13.3039,4.60104,2470.73,2023-6-18T04:49:46Z
2023-06-18T02:50:35Z,42.805,6.029,13.3032,4.60091,2470.717,2023-6-18T04:52:49Z
2023-06-18T02:53:38Z,42.805,6.029,13.3036,4.60097,2470.73,2023-6-18T04:55:52Z
2023-06-18T02:56:41Z,42.805,6.029,13.3036,4.60096,2470.693,2023-6-18T04:58:55Z
2023-06-18T02:59:44Z,42.805,6.029,13.3034,4.60094,2470.707,2023-6-18T05:01:59Z
2023-06-18T03:02:47Z,42.805,6.029,13.3032,4.60092,2470.679,2023-6-18T05:05:02Z
2023-06-18T03:05:50Z,42.805,6.029,13.3042,4.60097,2470.73,2023-6-18T05:08:05Z
2023-06-18T03:08:53Z,42.805,6.029,13.3031,4.60096,2470.693,2023-6-18T05:11:08Z
2023-06-18T03:11:57Z,42.805,6.029,13.3028,4.60091,2470.717,2023-6-18T05:14:11Z
2023-06-18T03:15:00Z,42.805,6.029,13.3033,4.60097,2470.74,2023-6-18T05:17:14Z
2023-06-18T03:18:03Z,42.805,6.029,13.3039,4.60090,2470.693,2023-6-18T05:20:17Z
2023-06-18T03:21:06Z,42.805,6.029,13.3034,4.60090,2470.717,2023-6-18T05:23:20Z
2023-06-18T03:24:09Z,42.805,6.029,13.3035,4.60095,2470.73,2023-6-18T05:26:23Z
2023-06-18T03:27:12Z,42.805,6.029,13.3035,4.60089,2470.693,2023-6-18T05:29:26Z
2023-06-18T03:30:15Z,42.805,6.029,13.3035,4.60089,2470.707,2023-6-18T05:32:29Z
2023-06-18T03:33:18Z,42.805,6.029,13.3034,4.60097,2470.717,2023-6-18T05:35:32Z
2023-06-18T03:36:21Z,42.805,6.029,13.3031,4.60084,2470.73,2023-6-18T05:38:36Z
2023-06-18T03:39:24Z,42.805,6.029,13.3033,4.60092,2470.74,2023-6-18T05:41:39Z
2023-06-18T03:42:27Z,42.805,6.029,13.3032,4.60094,2470.754,2023-6-18T05:44:42Z
2023-06-18T03:45:30Z,42.805,6.029,13.3034,4.60094,2470.717,2023-6-18T05:47:45Z
2023-06-18T03:48:34Z,42.805,6.029,13.3032,4.60097,2470.717,2023-6-18T05:50:48Z
2023-06-18T03:51:37Z,42.805,6.029,13.3032,4.60093,2470.73,2023-6-18T05:53:51Z
2023-06-18T03:54:40Z,42.805,6.029,13.3034,4.60107,2470.73,2023-6-18T05:56:54Z
2023-06-18T03:57:43Z,42.805,6.029,13.3026,4.60086,2470.74,2023-6-18T05:59:57Z
2023-06-18T04:00:46Z,42.805,6.029,13.3036,4.60094,2470.763,2023-6-18T06:03:00Z
2023-06-18T04:03:49Z,42.805,6.029,13.3036,4.60092,2470.73,2023-6-18T06:06:03Z
2023-06-18T04:06:52Z,42.805,6.029,13.3032,4.60091,2470.717,2023-6-18T06:09:06Z
2023-06-18T04:09:55Z,42.805,6.029,13.3033,4.60099,2470.763,2023-6-18T06:12:09Z
2023-06-18T04:12:58Z,42.805,6.029,13.3031,4.60099,2470.74,2023-6-18T06:15:13Z
2023-06-18T04:16:01Z,42.805,6.029,13.3033,4.60093,2470.74,2023-6-18T06:18:16Z
2023-06-18T04:19:04Z,42.805,6.029,13.3034,4.60089,2470.74,2023-6-18T06:21:19Z
2023-06-18T04:22:07Z,42.805,6.029,13.3034,4.60097,2470.74,2023-6-18T06:24:22Z
2023-06-18T04:25:10Z,42.805,6.029,13.3036,4.60098,2470.74,2023-6-18T06:27:25Z
2023-06-18T04:28:14Z,42.805,6.029,13.3027,4.60094,2470.754,2023-6-18T06:30:28Z
2023-06-18T04:31:17Z,42.805,6.029,13.3027,4.60099,2470.74,2023-6-18T06:33:31Z
2023-06-18T04:34:20Z,42.805,6.029,13.3034,4.60088,2470.763,2023-6-18T06:36:34Z
2023-06-18T04:37:23Z,42.805,6.029,13.3030,4.60087,2470.74,2023-6-18T06:39:37Z
2023-06-18T04:40:26Z,42.805,6.029,13.3034,4.60092,2470.754,2023-6-18T06:42:40Z
2023-06-18T04:43:29Z,42.805,6.029,13.3030,4.60092,2470.787,2023-6-18T06:45:43Z
2023-06-18T04:46:32Z,42.805,6.029,13.3028,4.60085,2470.787,2023-6-18T06:48:46Z
2023-06-18T04:49:35Z,42.805,6.029,13.3031,4.60092,2470.777,2023-6-18T06:51:50Z
2023-06-18T04:52:38Z,42.805,6.029,13.3028,4.60087,2470.763,2023-6-18T06:54:53Z
2023-06-18T04:55:41Z,42.805,6.029,13.3028,4.60092,2470.787,2023-6-18T06:57:56Z
2023-06-18T04:58:44Z,42.805,6.029,13.3036,4.60087,2470.777,2023-6-18T07:00:59Z
2023-06-18T05:01:47Z,42.805,6.029,13.3036,4.60095,2470.777,2023-6-18T07:04:02Z
2023-06-18T05:04:51Z,42.805,6.029,13.3030,4.60081,2470.787,2023-6-18T07:07:05Z
2023-06-18T05:07:54Z,42.805,6.029,13.3031,4.60089,2470.787,2023-6-18T07:10:08Z
2023-06-18T05:10:57Z,42.805,6.029,13.3030,4.60087,2470.777,2023-6-18T07:13:11Z
2023-06-18T05:14:00Z,42.805,6.029,13.3033,4.60101,2470.81,2023-6-18T07:16:14Z
2023-06-18T05:17:03Z,42.805,6.029,13.3029,4.60105,2470.787,2023-6-18T07:19:17Z
2023-06-18T05:20:06Z,42.805,6.029,13.3024,4.60082,2470.787,2023-6-18T07:22:20Z
2023-06-18T05:23:09Z,42.805,6.029,13.3032,4.60089,2470.777,2023-6-18T07:25:23Z
2023-06-18T05:26:12Z,42.805,6.029,13.3031,4.60093,2470.8,2023-6-18T07:28:26Z
2023-06-18T05:29:15Z,42.805,6.029,13.3024,4.60080,2470.824,2023-6-18T07:31:30Z
2023-06-18T05:32:18Z,42.805,6.029,13.3028,4.60089,2470.824,2023-6-18T07:34:33Z
2023-06-18T05:35:21Z,42.805,6.029,13.3031,4.60089,2470.824,2023-6-18T07:37:36Z
2023-06-18T05:38:24Z,42.805,6.029,13.3025,4.60086,2470.81,2023-6-18T07:40:39Z
2023-06-18T05:41:28Z,42.805,6.029,13.3028,4.60082,2470.787,2023-6-18T07:43:42Z
2023-06-18T05:44:31Z,42.805,6.029,13.3031,4.60089,2470.81,2023-6-18T07:46:45Z
2023-06-18T05:47:34Z,42.805,6.029,13.3029,4.60088,2470.824,2023-6-18T07:49:48Z
2023-06-18T05:50:37Z,42.805,6.029,13.3026,4.60093,2470.833,2023-6-18T07:52:51Z
2023-06-18T05:53:40Z,42.805,6.029,13.3029,4.60086,2470.81,2023-6-18T07:55:54Z
2023-06-18T05:56:43Z,42.805,6.029,13.3035,4.60092,2470.81,2023-6-18T07:58:57Z
2023-06-18T05:59:46Z,42.805,6.029,13.3029,4.60088,2470.847,2023-6-18T08:02:00Z
2023-06-18T06:02:49Z,42.805,6.029,13.3032,4.60098,2470.787,2023-6-18T08:05:03Z
2023-06-18T06:05:52Z,42.805,6.029,13.3027,4.60082,2470.81,2023-6-18T08:08:07Z
2023-06-18T06:08:55Z,42.805,6.029,13.3033,4.60097,2470.824,2023-6-18T08:11:10Z
2023-06-18T06:11:58Z,42.805,6.029,13.3039,4.60087,2470.833,2023-6-18T08:14:13Z
2023-06-18T06:15:01Z,42.805,6.029,13.3032,4.60092,2470.824,2023-6-18T08:17:16Z
2023-06-18T06:18:05Z,42.805,6.029,13.3027,4.60093,2470.847,2023-6-18T08:20:19Z
2023-06-18T06:21:08Z,42.805,6.029,13.3026,4.60081,2470.871,2023-6-18T08:23:22Z
2023-06-18T06:24:11Z,42.805,6.029,13.3029,4.60084,2470.81,2023-6-18T08:26:25Z
2023-06-18T06:27:14Z,42.805,6.029,13.3026,4.60081,2470.81,2023-6-18T08:29:28Z
2023-06-18T06:30:16Z,42.805,6.029,13.3030,4.60087,2470.81,2023-6-18T08:32:30Z
2023-06-18T06:33:19Z,42.805,6.029,13.3024,4.60084,2470.833,2023-6-18T08:35:33Z
2023-06-18T06:36:22Z,42.805,6.029,13.3025,4.60081,2470.833,2023-6-18T08:38:36Z
2023-06-18T06:39:25Z,42.805,6.029,13.3032,4.60090,2470.824,2023-6-18T08:41:39Z
2023-06-18T06:42:28Z,42.805,6.029,13.3022,4.60080,2470.824,2023-6-18T08:44:42Z
2023-06-18T06:45:31Z,42.805,6.029,13.3031,4.60092,2470.871,2023-6-18T08:47:45Z
2023-06-18T06:48:34Z,42.805,6.029,13.3030,4.60091,2470.847,2023-6-18T08:50:48Z
2023-06-18T06:51:37Z,42.805,6.029,13.3026,4.60081,2470.824,2023-6-18T08:53:51Z
2023-06-18T06:54:40Z,42.805,6.029,13.3030,4.60088,2470.833,2023-6-18T08:56:55Z
2023-06-18T06:57:43Z,42.805,6.029,13.3024,4.60079,2470.847,2023-6-18T08:59:58Z
2023-06-18T07:00:46Z,42.805,6.029,13.3027,4.60084,2470.824,2023-6-18T09:03:01Z
2023-06-18T07:03:49Z,42.805,6.029,13.3029,4.60095,2470.833,2023-6-18T09:06:04Z
2023-06-18T07:06:52Z,42.805,6.029,13.3029,4.60083,2470.833,2023-6-18T09:09:07Z
2023-06-18T07:09:56Z,42.805,6.029,13.3031,4.60092,2470.847,2023-6-18T09:12:10Z
2023-06-18T07:12:59Z,42.805,6.029,13.3025,4.60086,2470.81,2023-6-18T09:15:13Z
2023-06-18T07:16:02Z,42.805,6.029,13.3025,4.60091,2470.833,2023-6-18T09:18:16Z
2023-06-18T07:19:05Z,42.805,6.029,13.3019,4.60081,2470.833,2023-6-18T09:21:19Z
2023-06-18T07:22:08Z,42.805,6.029,13.3031,4.60089,2470.824,2023-6-18T09:24:22Z
2023-06-18T07:25:11Z,42.805,6.029,13.3030,4.60082,2470.824,2023-6-18T09:27:25Z
2023-06-18T07:28:14Z,42.805,6.029,13.3020,4.60078,2470.81,2023-6-18T09:30:28Z
2023-06-18T07:31:17Z,42.805,6.029,13.3026,4.60084,2470.833,2023-6-18T09:33:32Z
2023-06-18T07:34:20Z,42.805,6.029,13.3031,4.60081,2470.857,2023-6-18T09:36:35Z
2023-06-18T07:37:23Z,42.805,6.029,13.3029,4.60086,2470.8,2023-6-18T09:39:38Z
2023-06-18T07:40:26Z,42.805,6.029,13.3024,4.60082,2470.833,2023-6-18T09:42:41Z
2023-06-18T07:43:30Z,42.805,6.029,13.3024,4.60083,2470.833,2023-6-18T09:45:44Z
2023-06-18T07:46:33Z,42.805,6.029,13.3024,4.60079,2470.81,2023-6-18T09:48:47Z
2023-06-18T07:49:36Z,42.805,6.029,13.3022,4.60077,2470.833,2023-6-18T09:51:50Z
2023-06-18T07:52:39Z,42.805,6.029,13.3027,4.60082,2470.81,2023-6-18T09:54:53Z
2023-06-18T07:55:42Z,42.805,6.029,13.3028,4.60081,2470.8,2023-6-18T09:57:56Z
2023-06-18T07:58:45Z,42.805,6.029,13.3026,4.60086,2470.833,2023-6-18T10:00:59Z
2023-06-18T08:01:48Z,42.805,6.029,13.3024,4.60083,2470.81,2023-6-18T10:04:02Z
2023-06-18T08:04:51Z,42.805,6.029,13.3031,4.60090,2470.81,2023-6-18T10:07:05Z
2023-06-18T08:07:54Z,42.805,6.029,13.3025,4.60083,2470.81,2023-6-18T10:10:09Z
2023-06-18T08:10:57Z,42.805,6.029,13.3023,4.60085,2470.81,2023-6-18T10:13:12Z
2023-06-18T08:14:00Z,42.805,6.029,13.3014,4.60081,2470.81,2023-6-18T10:16:15Z
2023-06-18T08:17:03Z,42.805,6.029,13.3024,4.60084,2470.81,2023-6-18T10:19:18Z
2023-06-18T08:20:07Z,42.805,6.029,13.3025,4.60084,2470.847,2023-6-18T10:22:21Z
2023-06-18T08:23:10Z,42.805,6.029,13.3023,4.60082,2470.787,2023-6-18T10:25:24Z
2023-06-18T08:26:13Z,42.805,6.029,13.3028,4.60084,2470.8,2023-6-18T10:28:27Z
2023-06-18T08:29:16Z,42.805,6.029,13.3024,4.60077,2470.763,2023-6-18T10:31:30Z
2023-06-18T08:32:18Z,42.805,6.029,13.3026,4.60081,2470.787,2023-6-18T10:34:33Z
2023-06-18T08:35:22Z,42.805,6.029,13.3025,4.60080,2470.824,2023-6-18T10:37:36Z
2023-06-18T08:38:25Z,42.805,6.029,13.3020,4.60079,2470.8,2023-6-18T10:40:39Z
2023-06-18T08:41:28Z,42.805,6.029,13.3026,4.60083,2470.777,2023-6-18T10:43:42Z
2023-06-18T08:44:31Z,42.805,6.029,13.3028,4.60084,2470.8,2023-6-18T10:46:45Z
2023-06-18T08:47:34Z,42.805,6.029,13.3026,4.60081,2470.8,2023-6-18T10:49:48Z
2023-06-18T08:50:37Z,42.805,6.029,13.3030,4.60086,2470.787,2023-6-18T10:52:51Z
2023-06-18T08:53:40Z,42.805,6.029,13.3023,4.60086,2470.777,2023-6-18T10:55:54Z
2023-06-18T08:56:43Z,42.805,6.029,13.3024,4.60079,2470.787,2023-6-18T10:58:58Z
2023-06-18T08:59:46Z,42.805,6.029,13.3022,4.60084,2470.763,2023-6-18T11:02:01Z
2023-06-18T09:02:49Z,42.805,6.029,13.3020,4.60082,2470.763,2023-6-18T11:05:04Z
2023-06-18T09:05:52Z,42.805,6.029,13.3029,4.60087,2470.763,2023-6-18T11:08:07Z
2023-06-18T09:08:55Z,42.805,6.029,13.3022,4.60076,2470.787,2023-6-18T11:11:10Z
2023-06-18T09:11:59Z,42.805,6.029,13.3027,4.60090,2470.777,2023-6-18T11:14:13Z
2023-06-18T09:15:02Z,42.805,6.029,13.3029,4.60085,2470.8,2023-6-18T11:17:16Z
2023-06-18T09:18:05Z,42.805,6.029,13.3025,4.60079,2470.787,2023-6-18T11:20:19Z
2023-06-18T09:21:08Z,42.805,6.029,13.3029,4.60081,2470.777,2023-6-18T11:23:22Z
2023-06-18T09:24:11Z,42.805,6.029,13.3029,4.60082,2470.777,2023-6-18T11:26:25Z
2023-06-18T09:27:14Z,42.805,6.029,13.3024,4.60084,2470.74,2023-6-18T11:29:28Z
2023-06-18T09:30:17Z,42.805,6.029,13.3024,4.60089,2470.787,2023-6-18T11:32:31Z
2023-06-18T09:33:20Z,42.805,6.029,13.3027,4.60089,2470.763,2023-6-18T11:35:35Z
2023-06-18T09:36:23Z,42.805,6.029,13.3026,4.60087,2470.777,2023-6-18T11:38:38Z
2023-06-18T09:39:26Z,42.805,6.029,13.3027,4.60090,2470.777,2023-6-18T11:41:41Z
2023-06-18T09:42:29Z,42.805,6.029,13.3024,4.60087,2470.763,2023-6-18T11:44:44Z
2023-06-18T09:45:33Z,42.805,6.029,13.3021,4.60087,2470.763,2023-6-18T11:47:47Z
2023-06-18T09:48:36Z,42.805,6.029,13.3024,4.60087,2470.777,2023-6-18T11:50:50Z
2023-06-18T09:51:39Z,42.805,6.029,13.3025,4.60089,2470.763,2023-6-18T11:53:53Z
2023-06-18T09:54:42Z,42.805,6.029,13.3027,4.60092,2470.754,2023-6-18T11:56:56Z
2023-06-18T09:57:45Z,42.805,6.029,13.3027,4.60099,2470.777,2023-6-18T11:59:59Z
2023-06-18T10:00:48Z,42.805,6.029,13.3025,4.60086,2470.75,2023-6-18T12:03:02Z
2023-06-18T10:03:51Z,42.805,6.029,13.3026,4.60087,2470.74,2023-6-18T12:06:05Z
2023-06-18T10:06:54Z,42.805,6.029,13.3025,4.60082,2470.754,2023-6-18T12:09:09Z
2023-06-18T10:09:57Z,42.805,6.029,13.3028,4.60087,2470.763,2023-6-18T12:12:12Z
2023-06-18T10:13:00Z,42.805,6.029,13.3024,4.60089,2470.73,2023-6-18T12:15:15Z
2023-06-18T10:16:03Z,42.805,6.029,13.3029,4.60084,2470.763,2023-6-18T12:18:18Z
2023-06-18T10:19:06Z,42.805,6.029,13.3031,4.60082,2470.763,2023-6-18T12:21:21Z
2023-06-18T10:22:10Z,42.805,6.029,13.3026,4.60085,2470.74,2023-6-18T12:24:24Z
2023-06-18T10:25:13Z,42.805,6.029,13.3026,4.60085,2470.73,2023-6-18T12:27:27Z
2023-06-18T10:28:16Z,42.805,6.029,13.3023,4.60084,2470.74,2023-6-18T12:30:30Z
2023-06-18T10:31:17Z,42.805,6.029,13.3024,4.60083,2470.717,2023-6-18T12:33:31Z
2023-06-18T10:34:20Z,42.805,6.029,13.3029,4.60089,2470.703,2023-6-18T12:36:35Z
2023-06-18T10:37:23Z,42.805,6.029,13.3029,4.60084,2470.717,2023-6-18T12:39:38Z
2023-06-18T10:40:26Z,42.805,6.029,13.3024,4.60085,2470.754,2023-6-18T12:42:41Z
2023-06-18T10:43:29Z,42.805,6.029,13.3026,4.60089,2470.73,2023-6-18T12:45:44Z
2023-06-18T10:46:32Z,42.805,6.029,13.3029,4.60091,2470.777,2023-6-18T12:48:47Z
2023-06-18T10:49:36Z,42.805,6.029,13.3024,4.60090,2470.717,2023-6-18T12:51:50Z
2023-06-18T10:52:39Z,42.805,6.029,13.3026,4.60086,2470.717,2023-6-18T12:54:53Z
2023-06-18T10:55:42Z,42.805,6.029,13.3024,4.60089,2470.707,2023-6-18T12:57:56Z
2023-06-18T10:58:45Z,42.805,6.029,13.3024,4.60088,2470.717,2023-6-18T13:00:59Z
2023-06-18T11:01:48Z,42.805,6.029,13.3020,4.60078,2470.693,2023-6-18T13:04:02Z
2023-06-18T11:04:51Z,42.805,6.029,13.3029,4.60086,2470.717,2023-6-18T13:07:05Z
2023-06-18T11:07:54Z,42.805,6.029,13.3025,4.60085,2470.67,2023-6-18T13:10:08Z
2023-06-18T11:10:57Z,42.805,6.029,13.3028,4.60081,2470.693,2023-6-18T13:13:12Z
2023-06-18T11:14:00Z,42.805,6.029,13.3024,4.60085,2470.693,2023-6-18T13:16:15Z
2023-06-18T11:17:03Z,42.805,6.029,13.3031,4.60081,2470.693,2023-6-18T13:19:18Z
2023-06-18T11:20:06Z,42.805,6.029,13.3028,4.60081,2470.67,2023-6-18T13:22:21Z
2023-06-18T11:23:10Z,42.805,6.029,13.3023,4.60082,2470.693,2023-6-18T13:25:24Z
2023-06-18T11:26:13Z,42.805,6.029,13.3027,4.60087,2470.693,2023-6-18T13:28:27Z
2023-06-18T11:29:16Z,42.805,6.029,13.3026,4.60087,2470.67,2023-6-18T13:31:30Z
2023-06-18T11:32:19Z,42.805,6.029,13.3030,4.60081,2470.67,2023-6-18T13:34:33Z
2023-06-18T11:35:22Z,42.805,6.029,13.3029,4.60092,2470.684,2023-6-18T13:37:36Z
2023-06-18T11:38:25Z,42.805,6.029,13.3029,4.60085,2470.707,2023-6-18T13:40:39Z
2023-06-18T11:41:28Z,42.805,6.029,13.3026,4.60089,2470.693,2023-6-18T13:43:42Z
2023-06-18T11:44:31Z,42.805,6.029,13.3026,4.60084,2470.67,2023-6-18T13:46:46Z
2023-06-18T11:47:34Z,42.805,6.029,13.3022,4.60084,2470.684,2023-6-18T13:49:49Z
2023-06-18T11:50:37Z,42.805,6.029,13.3024,4.60086,2470.693,2023-6-18T13:52:52Z
2023-06-18T11:53:40Z,42.805,6.029,13.3025,4.60087,2470.73,2023-6-18T13:55:55Z
2023-06-18T11:56:44Z,42.805,6.029,13.3025,4.60086,2470.661,2023-6-18T13:58:58Z
2023-06-18T11:59:47Z,42.805,6.029,13.3029,4.60081,2470.693,2023-6-18T14:02:01Z
2023-06-18T12:02:50Z,42.805,6.029,13.3027,4.60086,2470.693,2023-6-18T14:05:04Z
2023-06-18T12:05:53Z,42.805,6.029,13.3029,4.60085,2470.693,2023-6-18T14:08:07Z
2023-06-18T12:08:56Z,42.805,6.029,13.3024,4.60082,2470.67,2023-6-18T14:11:10Z
2023-06-18T12:11:59Z,42.805,6.029,13.3030,4.60091,2470.693,2023-6-18T14:14:13Z
2023-06-18T12:15:02Z,42.805,6.029,13.3026,4.60079,2470.684,2023-6-18T14:17:16Z
2023-06-18T12:18:05Z,42.805,6.029,13.3024,4.60094,2470.693,2023-6-18T14:20:19Z
2023-06-18T12:21:08Z,42.805,6.029,13.3029,4.60093,2470.707,2023-6-18T14:23:23Z
2023-06-18T12:24:11Z,42.805,6.029,13.3027,4.60089,2470.684,2023-6-18T14:26:26Z
2023-06-18T12:27:14Z,42.805,6.029,13.3026,4.60079,2470.661,2023-6-18T14:29:29Z
2023-06-18T12:30:17Z,42.805,6.029,13.3027,4.60081,2470.661,2023-6-18T14:32:32Z
2023-06-18T12:33:21Z,42.805,6.029,13.3031,4.60083,2470.646,2023-6-18T14:35:35Z
2023-06-18T12:36:24Z,42.805,6.029,13.3024,4.60097,2470.707,2023-6-18T14:38:38Z
2023-06-18T12:39:27Z,42.805,6.029,13.3028,4.60086,2470.656,2023-6-18T14:41:41Z
2023-06-18T12:42:30Z,42.805,6.029,13.3031,4.60088,2470.67,2023-6-18T14:44:44Z
2023-06-18T12:45:33Z,42.805,6.029,13.3026,4.60087,2470.646,2023-6-18T14:47:47Z
2023-06-18T12:48:36Z,42.805,6.029,13.3022,4.60088,2470.646,2023-6-18T14:50:50Z
2023-06-18T12:51:39Z,42.805,6.029,13.3029,4.60087,2470.67,2023-6-18T14:53:53Z
2023-06-18T12:54:42Z,42.805,6.029,13.3026,4.60085,2470.646,2023-6-18T14:56:57Z
2023-06-18T12:57:45Z,42.805,6.029,13.3026,4.60089,2470.67,2023-6-18T15:00:00Z
2023-06-18T13:00:48Z,42.805,6.029,13.3031,4.60097,2470.67,2023-6-18T15:03:03Z
2023-06-18T13:03:51Z,42.805,6.029,13.3026,4.60085,2470.67,2023-6-18T15:06:06Z
2023-06-18T13:06:55Z,42.805,6.029,13.3028,4.60094,2470.67,2023-6-18T15:09:09Z
2023-06-18T13:09:58Z,42.805,6.029,13.3024,4.60089,2470.67,2023-6-18T15:12:12Z
2023-06-18T13:13:01Z,42.805,6.029,13.3033,4.60089,2470.67,2023-6-18T15:15:15Z
2023-06-18T13:16:04Z,42.805,6.029,13.3029,4.60082,2470.684,2023-6-18T15:18:18Z
2023-06-18T13:19:07Z,42.805,6.029,13.3029,4.60086,2470.67,2023-6-18T15:21:21Z
2023-06-18T13:22:10Z,42.805,6.029,13.3030,4.60086,2470.67,2023-6-18T15:24:24Z
2023-06-18T13:25:13Z,42.805,6.029,13.3030,4.60086,2470.67,2023-6-18T15:27:27Z
2023-06-18T13:28:16Z,42.805,6.029,13.3024,4.60094,2470.684,2023-6-18T15:30:31Z
2023-06-18T13:31:19Z,42.805,6.029,13.3027,4.60082,2470.67,2023-6-18T15:33:34Z
2023-06-18T13:34:22Z,42.805,6.029,13.3032,4.60084,2470.67,2023-6-18T15:36:37Z
2023-06-18T13:37:25Z,42.805,6.029,13.3024,4.60081,2470.67,2023-6-18T15:39:40Z
2023-06-18T13:40:29Z,42.805,6.029,13.3032,4.60084,2470.67,2023-6-18T15:42:43Z
2023-06-18T13:43:32Z,42.805,6.029,13.3028,4.60087,2470.693,2023-6-18T15:45:46Z
2023-06-18T13:46:35Z,42.805,6.029,13.3029,4.60086,2470.67,2023-6-18T15:48:49Z
2023-06-18T13:49:38Z,42.805,6.029,13.3029,4.60089,2470.67,2023-6-18T15:51:52Z
2023-06-18T13:52:41Z,42.805,6.029,13.3027,4.60092,2470.707,2023-6-18T15:54:55Z
2023-06-18T13:55:44Z,42.805,6.029,13.3029,4.60085,2470.693,2023-6-18T15:57:58Z
2023-06-18T13:58:47Z,42.805,6.029,13.3031,4.60085,2470.646,2023-6-18T16:01:01Z
2023-06-18T14:01:50Z,42.805,6.029,13.3030,4.60089,2470.67,2023-6-18T16:04:05Z
2023-06-18T14:04:53Z,42.805,6.029,13.3026,4.60089,2470.646,2023-6-18T16:07:08Z
2023-06-18T14:07:56Z,42.805,6.029,13.3027,4.60086,2470.646,2023-6-18T16:10:11Z
2023-06-18T14:10:59Z,42.805,6.029,13.3030,4.60086,2470.67,2023-6-18T16:13:14Z
2023-06-18T14:14:02Z,42.805,6.029,13.3030,4.60091,2470.693,2023-6-18T16:16:17Z
2023-06-18T14:17:06Z,42.805,6.029,13.3024,4.60082,2470.684,2023-6-18T16:19:20Z
2023-06-18T14:20:09Z,42.805,6.029,13.3026,4.60087,2470.684,2023-6-18T16:22:23Z
2023-06-18T14:23:12Z,42.805,6.029,13.3025,4.60088,2470.684,2023-6-18T16:25:26Z
2023-06-18T14:26:15Z,42.805,6.029,13.3026,4.60095,2470.646,2023-6-18T16:28:29Z
2023-06-18T14:29:18Z,42.805,6.029,13.3026,4.60090,2470.67,2023-6-18T16:31:32Z
2023-06-18T14:32:20Z,42.805,6.029,13.3029,4.60081,2470.693,2023-6-18T16:34:34Z
2023-06-18T14:35:23Z,42.805,6.029,13.3033,4.60084,2470.67,2023-6-18T16:37:37Z
2023-06-18T14:38:26Z,42.805,6.029,13.3028,4.60089,2470.707,2023-6-18T16:40:40Z
2023-06-18T14:41:29Z,42.805,6.029,13.3029,4.60085,2470.646,2023-6-18T16:43:43Z
2023-06-18T14:44:32Z,42.805,6.029,13.3026,4.60083,2470.646,2023-6-18T16:46:46Z
2023-06-18T14:47:35Z,42.805,6.029,13.3032,4.60086,2470.693,2023-6-18T16:49:50Z
2023-06-18T14:50:38Z,42.805,6.029,13.3031,4.60084,2470.684,2023-6-18T16:52:53Z
2023-06-18T14:53:41Z,42.805,6.029,13.3033,4.60084,2470.67,2023-6-18T16:55:56Z
2023-06-18T14:56:44Z,42.805,6.029,13.3024,4.60080,2470.67,2023-6-18T16:58:59Z
2023-06-18T14:59:48Z,42.805,6.029,13.3029,4.60083,2470.707,2023-6-18T17:02:02Z
2023-06-18T15:02:51Z,42.805,6.029,13.3026,4.60084,2470.684,2023-6-18T17:05:05Z
2023-06-18T15:05:54Z,42.805,6.029,13.3029,4.60086,2470.693,2023-6-18T17:08:08Z
2023-06-18T15:08:57Z,42.805,6.029,13.3028,4.60086,2470.67,2023-6-18T17:11:11Z
2023-06-18T15:12:00Z,42.805,6.029,13.3029,4.60085,2470.67,2023-6-18T17:14:14Z
2023-06-18T15:15:03Z,42.805,6.029,13.3028,4.60089,2470.684,2023-6-18T17:17:17Z